Preview of NWS' New Version of Forecast
This preview is not operational and should not be used for support decisions.

Regional Weather Roundup (RWR)

Issued by National Weather Service (NWS)

                            
000
ASUS43 KMKX 180300
RWRWI 

WISCONSIN REGIONAL WEATHER ROUNDUP
NATIONAL WEATHER SERVICE MILWAUKEE/SULLIVAN WI
1000 PM CDT SAT AUG 17 2019

NOTE: "FAIR" INDICATES FEW OR NO CLOUDS BELOW 12,000 FEET WITH NO
SIGNIFICANT WEATHER AND/OR OBSTRUCTIONS TO VISIBILITY.

WIZ001-002-006>008-014>016-023>028-180400-
NORTHWEST WISCONSIN
  
CITY           SKY/WX    TMP DP  RH WIND       PRES   REMARKS
SUPERIOR ARPT  FAIR      63  59  87 CALM      29.75S                  
ASHLAND        FAIR      68  60  75 S3        29.79S                  
HAYWARD        FAIR      66  59  78 SE3       29.80F                  
SIREN          FAIR      69  60  73 SE5       29.77F                  
CUMBERLAND     FAIR      64  57  77 SE7       29.80F                  
RICE LAKE      FAIR      68  51  55 E5        29.80F                  
CHETEK         FAIR      67  63  86 SE5       29.80F                  
LADYSMITH      FAIR      66  62  87 E6        29.84F                  
EAU CLAIRE     NOT AVBL                                               
MENOMONIE      FAIR      64  59  86 E6        29.79F                  
NEW RICHMOND   FAIR      67  60  77 SE3       29.78R                  
OSCEOLA        FAIR      66  62  85 E5        29.79S                  
$$
 
WIZ003>005-009-010-017-018-180400-
NORTH CENTRAL WISCONSIN
  
CITY           SKY/WX    TMP DP  RH WIND       PRES   REMARKS
MANITOWISH WTR FAIR      62  62 100 S3        29.86R                  
ARBOR VITAE    FAIR      67  62  83 CALM      29.86R                  
WOODRUFF       FAIR      67  62  83 CALM      29.86R                  
RHINELANDER    FAIR      68  60  75 CALM      29.88R                  
EAGLE RIVER    FAIR      66  60  82 CALM      29.86R                  
LAND O LAKES   MOCLDY    63  60  87 CALM      29.89R                  
PHILLIPS       FAIR      66  62  85 S5        29.85R                  
TOMAHAWK       FAIR      60  59  96 CALM      29.87R                  
MEDFORD        FAIR      64  58  83 CALM      29.85R                  
MERRILL        FAIR      65  62  89 CALM      29.86S                  
$$
 
WIZ029-030-035-036-043>047-180400-
CENTRAL WISCONSIN
  
CITY           SKY/WX    TMP DP  RH WIND       PRES   REMARKS
WAUSAU         FAIR      67  61  81 SE6       29.84R                  
MOSINEE        CLEAR     64  63  94 E3        29.87R                  
MARSHFIELD     FAIR      67  61  81 E3        29.84S                  
STEVENS POINT  FAIR      63  61  93 CALM      29.86R                  
WAUPACA        FAIR      66  64  93 CALM      29.85S                  
WAUTOMA        FAIR      64  63  96 CALM      29.85R                  
WISC RAPIDS    FAIR      68  63  84 SE6       29.85R                  
CAMP DOUGLAS   FAIR      63  63 100 E5        29.83R                  
$$
 
WIZ011>013-019>022-031-037>040-048>050-180400-
NORTHEAST WISCONSIN
  
CITY           SKY/WX    TMP DP  RH WIND       PRES   REMARKS
ANTIGO         FAIR      62  60  93 CALM      29.88S                  
SHAWANO        FAIR      69  64  84 S3        29.86R                  
OCONTO         FAIR      67  64  89 SE3       29.85S                  
STURGEON BAY   FAIR      66  63  90 S5        29.88R                  
GREEN BAY      FAIR      69  64  84 S3        29.86R                  
MANITOWOC      FAIR      67  66  97 CALM      29.87S                  
APPLETON       PTCLDY    68  57  68 SE6       29.84S                  
CLINTONVILLE   FAIR      67  60  78 CALM      29.86R                  
OSHKOSH        FAIR      67  62  84 S5        29.85R                  
$$
 
WIZ032>034-041-042-053>061-180400-
SOUTHWEST WISCONSIN
  
CITY           SKY/WX    TMP DP  RH WIND       PRES   REMARKS
LA CROSSE      FAIR      73  63  70 E7        29.79R                  
SPARTA         FAIR      64  61  90 CALM      29.83R                  
VIROQUA        FAIR      69  68  99 SE6       29.84R                  
BOSCOBEL       FAIR      70  66  87 CALM      29.82R                  
PRAIRIE DU CHI FAIR      71  66  86 CALM      29.81R                  
PLATTEVILLE    FAIR      70  70 100 SE5       29.84R                  
$$

WIZ056-057-062-063-064-067-068-180400-
SOUTH CENTRAL WISCONSIN
  
CITY           SKY/WX    TMP DP  RH WIND       PRES   REMARKS
REEDSBURG      FAIR      68  68  99 E3        29.84R                  
BARABOO/DELLS  FAIR      66  63  90 SE3       29.84S                  
LONE ROCK      NOT AVBL                                               
MINERAL POINT    N/A     70  68  94 E5        29.85R                  
MADISON        FAIR      71  65  81 S6        29.84R                  
MIDDLETON      FAIR      69  13  11 CALM      29.85S                  
WATERTOWN      FAIR      70  70 100 CALM      29.86R                  
MONROE         FAIR      71  69  90 SE7       29.84F                  
JANESVILLE     MOCLDY    72  72 100 SE5       29.85S                  
$$
 
WIZ051-052-058>065-066-070>072-180400-
SOUTHEAST WISCONSIN
  
CITY           SKY/WX    TMP DP  RH WIND       PRES   REMARKS
MILWAUKEE      FAIR      73  67  81 S6        29.86F                  
WAUKESHA       FAIR      68  64  88 S6        29.88S                  
MILWAUKEE/TIMM FAIR      72  63  73 S5        29.87S                  
RACINE         FAIR      73  69  87 S6        29.88F                  
KENOSHA        FAIR      70  69  97 SE3       29.87F                  
FOND DU LAC    FAIR      71  65  81 SE5       29.86R                  
SHEBOYGAN      FAIR      68  65  90 CALM      29.87R                  
WEST BEND      FAIR      68  66  94 CALM      29.87S                  
JUNEAU         FAIR      69  66  91 SE3       29.87S                  
$$

LSZ147-162-180400-
LAKE SUPERIOR
  
STATION/POSITION TIME  TEMP    WIND        PRES    WAVE
                       AIR SEA DIR/SP/G            HT/PER
                 (UTC) (F)     (DEG/KT/KT) (MB)    (FT/S)
W MID LAKE BUOY  0150   68 65  140/ 10/ 12 1007.3R   0
DEVILS ISLAND    0200   74     200/  8/ 11 1007.8R
SAXON HARBOR     0240   69     210/  4/  6 1008.5R
$$
 
LMZ867-665-643>646-180400-
LAKE MICHIGAN
  
STATION/POSITION TIME  TEMP    WIND        PRES    WAVE
                       AIR SEA DIR/SP/G            HT/PER
                 (UTC) (F)     (DEG/KT/KT) (MB)    (FT/S)
S GREEN BAY BUOY 0200   76 71  160/ 10/ 12 1011.1
N MID LAKE BUOY  0240   71 71  200/ 10/ 12 1011.6R
NORTHPORT PIER   0240   68     160/  1/  3 1010.8S
KEWAUNEE LAKESHO 0224   69     210/  4/  6 1010.7
SHEBOYGAN LAKESH 0200   69     120/  4/  4 1011.1F
PORT WASHINGTON  0240   71     150/  3/  4 1012.2R
S MID LAKE BUOY  0240   73     150/  8/  8 1011.8F
KENOSHA   LAKESH 0200   73     190/  3/  6 1011.2
$$

TC  - TEMPERATURE IN CELSIUS
VSB - VISIBILITY IN STATUTE MILES
WCI - WIND CHILL INDEX
HX  - HEAT INDEX